Other Public Products
Issued by NWS Charleston, SC

Home | Current Version | Previous Version | Text Only | Print | Product List | Glossary On
Versions: 1 2 3 4 5 6 7 8 9 10 11 12 13 14 15 16 17 18 19 20 21 22 23 24 25 26 27 28 29 30 31 32 33 34 35 36 37 38 39 40 41 42 43 44 45 46 47 48 49 50
453
FPUS82 KCHS 291427
OPUCHS

TEST...KCHS/KSAV Gateway Observations...TEST
National Weather Service Charleston SC
1000 AM EDT THU JUN 29 2017

NOTE: "fair" indicates few or no clouds below 12,000 feet with no
significant weather and/or obstructions to visibility.

SCZ050-WAZ558-NCZ071-TXZ119-213-PAZ071-DCZ001-FLZ074-172-MI076-
NYZ176-178-MAZ016-IL014-TNZ027-NJZ106-GAZ044-MD014-291500-

...Gateway Observations for Charleston International...

CITY           SKY/WX    TMP DP  RH WIND       PRES   REMARKS
Chas Airport   PTSUNNY   82  70  66 E10G20    30.19S
Seattle        PTSUNNY   55  51  86 S3        30.16R
Charlotte      MOSUNNY   76  61  59 VRB6      30.23S
Dallas DFW     CLOUDY    78  73  84 S10       29.87R
Dallas Love    CLOUDY    77  71  82 S8        29.89R
Philladelphia  PTSUNNY   76  60  57 S14       30.15F
Wash National  CLOUDY    78  60  53 SW14      30.15F
Baltimore      CLOUDY    78  59  51 SW12      30.14S
Miami          CLOUDY    87  73  62 N5        30.09R HX  94
Detroit        CLOUDY    75  61  61 SW20G29   29.84S
Newark         PTSUNNY   77  58  51 SW18G25   30.12F
Laguardia      PTSUNNY   77  60  55 SW14      30.12F
J F K          MOSUNNY   74  64  71 S12       30.15F
Boston Logan   CLOUDY    73  55  53 SW12      30.12S
Ft. Lauderdale PTSUNNY   85  76  74 E10       30.08R HX  94
Chicago O`Hare CLOUDY    74  61  63 SW22      29.77S
Chicago Midway CLOUDY    75  61  61 SW15      29.79R
Houston Bush   PTSUNNY   80  76  87 S3        29.90R
Houston Hobby  MOSUNNY   81  75  82 S8        29.90R
Nashville      PTSUNNY   80  67  64 SW10      30.10S
Atlanta        CLOUDY    76  70  82 SE8       30.18S

$$

GAZ044-118-TXZ119-213-NCZ071-DCZ001-MDZ014-506-PAZ021-071-NJZ106-
NYZ176-178-MAZ106-OHZ011-021-055-MIZ076-KYZ091-ILZ014-INZ047-
MNZ060-ONZ431-291500-

...Gateway Observations for Savannah International...

CITY           SKY/WX    TMP DP  RH WIND       PRES   REMARKS
Savannah Arpt  PTSUNNY   84  69  60 E14       30.17F
Atlanta        CLOUDY    76  70  82 SE8       30.18S
Charlotte      MOSUNNY   76  61  59 VRB6      30.23S
Dallas DFW     CLOUDY    78  73  84 S10       29.87R
Houston Bush   PTSUNNY   80  76  87 S3        29.90R
Wash National  CLOUDY    78  60  53 SW14      30.15F
Wash Dulles    PTSUNNY   77  58  51 SW14      30.15S
Baltimore      CLOUDY    78  59  51 SW12      30.14S
Philadelphia   PTSUNNY   76  60  57 S14       30.15F
Newark         PTSUNNY   77  58  51 SW18G25   30.12F
Laguardia      PTSUNNY   77  60  55 SW14      30.12F
J F K          MOSUNNY   74  64  71 S12       30.15F
Boston         CLOUDY    73  55  53 SW12      30.12S
Pittsburg      PTSUNNY   74  58  57 SW9       30.06F
Akron          CLOUDY    75  57  53 S15       30.01F
Cleveland      CLOUDY    77  60  55 S14       29.95F
Cincinnati     PTSUNNY   75  66  73 S15G22    30.00F
Columbus       SUNNY     77  64  63 SW18G28   30.00S
Detroit        CLOUDY    75  61  61 SW20G29   29.84S
Chicago O`Hare CLOUDY    74  61  63 SW22      29.77S
Minneapolis    CLOUDY    67  58  72 NW13      29.73S
Indianapolis   CLOUDY    77  65  66 SW17      29.92R
Toronto Canada LGT RAIN  64  59  82 E6        29.89F

$$




USA.gov is the U.S. government's official web portal to all federal, state and local government web resources and services.